FW2285 Weather Reports


Display with metric or nautical units.
time (UTC)temp
F
wind
direction
speed
MPH
gust
MPH
rain 1hr
in
rain 24hr
in
rain mn
in
humidity
%
barometer
mb
20260508123051 57 283 0.0 0.0 0.00 0.00 0.00 54 1010.8
20260508121550 57 283 0.0 1.0 0.00 0.00 0.00 53 1010.9
20260508120059 58 283 0.0 3.0 0.00 0.00 0.00 50 1010.8
20260508114556 58 282 0.0 3.0 0.00 0.00 0.00 49 1010.7
20260508113050 57 290 0.0 3.0 0.00 0.00 0.00 51 1010.5
20260508111547 56 298 0.0 2.0 0.00 0.00 0.00 53 1010.2
20260508110049 55 162 0.0 1.0 0.00 0.00 0.00 55 1010.0
20260508104546 54 162 0.0 0.0 0.00 0.00 0.00 56 1010.0
20260508103049 54 162 0.0 0.0 0.00 0.00 0.00 56 1010.0
20260508101545 54 162 0.0 0.0 0.00 0.00 0.00 56 1010.1
20260508100059 54 162 0.0 0.0 0.00 0.00 0.00 55 1010.0
20260508094544 54 162 0.0 0.0 0.00 0.00 0.00 54 1010.2
20260508093042 53 162 0.0 0.0 0.00 0.00 0.00 54 1010.2
20260508091602 54 162 0.0 0.0 0.00 0.00 0.00 52 1010.2
20260508090041 55 162 0.0 0.0 0.00 0.00 0.00 51 1010.2
20260508084533 56 162 0.0 1.0 0.00 0.00 0.00 50 1010.2
20260508083033 56 162 0.0 2.0 0.00 0.00 0.00 49 1010.3
20260508081529 57 162 0.0 3.0 0.00 0.00 0.00 48 1010.4
20260508080128 57 101 0.0 8.0 0.00 0.00 0.00 47 1010.4
20260508074525 57 94 1.0 4.0 0.00 0.00 0.00 48 1010.5
20260508073024 58 114 0.0 3.0 0.00 0.00 0.00 47 1010.9
20260508071526 57 141 0.0 1.0 0.00 0.00 0.00 47 1010.9
20260508070020 58 140 0.0 2.0 0.00 0.00 0.00 47 1011.3
20260508064518 58 109 0.0 4.0 0.00 0.00 0.00 46 1011.6
20260508063016 58 155 0.0 2.0 0.00 0.00 0.00 46 1011.8
20260508061517 59 215 0.0 4.0 0.00 0.00 0.00 46 1011.9
20260508060024 59 88 0.0 3.0 0.00 0.00 0.00 46 1011.9
20260508054531 58 144 0.0 2.0 0.00 0.00 0.00 46 1011.9
20260508053016 58 165 0.0 2.0 0.00 0.00 0.00 47 1011.9
20260508051512 59 165 0.0 1.0 0.00 0.00 0.00 45 1011.9
20260508050010 59 165 0.0 2.0 0.00 0.00 0.00 44 1012.0
20260508044510 60 215 0.0 3.0 0.00 0.00 0.00 43 1012.1
20260508043009 60 103 0.0 3.0 0.00 0.00 0.00 43 1012.2
20260508041513 61 140 0.0 3.0 0.00 0.00 0.00 42 1012.3
20260508040008 61 133 0.0 6.0 0.00 0.00 0.00 41 1012.2
20260508034510 61 104 0.0 6.0 0.00 0.00 0.00 41 1012.2
20260508033011 61 107 0.0 2.0 0.00 0.00 0.00 41 1012.2
20260508031510 62 112 1.0 6.0 0.00 0.00 0.00 41 1012.1
20260508030006 61 72 0.0 3.0 0.00 0.00 0.00 41 1012.0
20260508024504 62 67 0.0 2.0 0.00 0.00 0.00 41 1011.8
20260508023104 62 86 0.0 5.0 0.00 0.00 0.00 41 1011.7
20260508021504 63 107 0.0 3.0 0.00 0.00 0.00 39 1011.4
20260508020003 63 168 0.0 2.0 0.00 0.00 0.00 39 1011.2
20260508014502 63 154 2.0 5.0 0.00 0.00 0.00 39 1011.2
20260508013004 64 143 0.0 2.0 0.00 0.00 0.00 37 1011.2
20260508011501 64 133 0.0 4.0 0.00 0.00 0.00 37 1011.2
20260508010003 65 132 0.0 2.0 0.00 0.00 0.00 35 1011.1
20260508004600 65 113 0.0 4.0 0.00 0.00 0.00 35 1011.1
20260508003059 67 110 1.0 7.0 0.00 0.00 0.00 33 1011.2
20260508001602 67 111 1.0 4.0 0.00 0.00 0.00 33 1011.3
20260508000058 67 125 1.0 5.0 0.00 0.00 0.00 34 1011.4
20260507234559 68 155 1.0 4.0 0.00 0.00 0.00 33 1011.6
20260507233054 68 355 0.0 6.0 0.00 0.00 0.00 34 1011.8
20260507231553 69 117 1.0 7.0 0.00 0.00 0.00 32 1011.9
20260507230053 69 165 1.0 6.0 0.00 0.00 0.00 33 1012.1
20260507224550 68 163 1.0 7.0 0.00 0.00 0.00 32 1012.2
20260507223049 69 244 2.0 9.0 0.00 0.00 0.00 32 1012.3
20260507221549 69 174 3.0 10.0 0.00 0.00 0.00 31 1012.4
20260507220048 69 164 2.0 7.0 0.00 0.00 0.00 35 1012.4
20260507214549 69 109 2.0 9.0 0.00 0.00 0.00 34 1012.6
20260507213045 69 240 4.0 10.0 0.00 0.00 0.00 35 1012.8
20260507211544 68 287 3.0 12.0 0.00 0.00 0.00 33 1012.8
20260507210040 68 92 3.0 9.0 0.00 0.00 0.00 34 1013.2
20260507204538 68 80 2.0 9.0 0.00 0.00 0.00 35 1013.3
20260507203038 68 165 5.0 13.0 0.00 0.00 0.00 35 1013.6
20260507201535 68 190 2.0 11.0 0.00 0.00 0.00 36 1013.8
20260507200034 67 96 3.0 11.0 0.00 0.00 0.00 36 1014.1
20260507194532 67 171 2.0 10.0 0.00 0.00 0.00 37 1014.4
20260507193034 66 66 3.0 10.0 0.00 0.00 0.00 37 1014.6
20260507191528 67 13 2.0 9.0 0.00 0.00 0.00 38 1014.6
20260507190027 66 222 2.0 7.0 0.00 0.00 0.00 37 1014.9
20260507184524 65 178 2.0 10.0 0.00 0.00 0.00 39 1015.2
20260507183036 66 239 3.0 13.0 0.00 0.00 0.00 40 1015.3
20260507181521 65 197 3.0 9.0 0.00 0.00 0.00 39 1015.4
20260507180025 65 182 3.0 10.0 0.00 0.00 0.00 40 1015.7
20260507174518 63 257 2.0 7.0 0.00 0.00 0.00 41 1015.9
20260507173014 63 350 2.0 8.0 0.00 0.00 0.00 41 1015.9
20260507171512 64 258 3.0 10.0 0.00 0.00 0.00 41 1016.2
20260507170009 63 330 1.0 14.0 0.00 0.00 0.00 44 1016.5
20260507164506 60 198 3.0 11.0 0.00 0.00 0.00 42 1016.8
20260507163005 61 232 3.0 11.0 0.00 0.00 0.00 43 1016.9
20260507161503 60 176 1.0 8.0 0.00 0.00 0.00 44 1017.1
20260507160005 60 233 5.0 12.0 0.00 0.00 0.00 42 1017.2
20260507154601 61 270 3.0 10.0 0.00 0.00 0.00 45 1017.3
20260507153103 60 248 3.0 11.0 0.00 0.00 0.00 46 1017.4
20260507151554 59 169 3.0 10.0 0.00 0.00 0.00 44 1017.5
20260507150052 58 300 3.0 9.0 0.00 0.00 0.00 46 1017.6
20260507144553 58 167 3.0 10.0 0.00 0.00 0.00 47 1017.7
20260507143050 57 259 4.0 10.0 0.00 0.00 0.00 48 1017.5
20260507141546 56 188 1.0 4.0 0.00 0.00 0.00 50 1017.8
20260507140043 55 206 1.0 7.0 0.00 0.00 0.00 50 1017.8
20260507134536 53 236 1.0 8.0 0.00 0.00 0.00 52 1017.9
20260507133033 52 261 1.0 6.0 0.00 0.00 0.00 53 1017.8
20260507131534 51 229 0.0 4.0 0.00 0.00 0.00 53 1018.0
20260507130028 49 141 0.0 1.0 0.00 0.00 0.00 54 1018.2
20260507124536 47 165 0.0 1.0 0.00 0.00 0.00 55 1018.3